User: anonymous   Login
Location: Croissy-Beaubourg
(48.8283°N, 2.6696°E)
Time: 10:51:31
(UTC+00:00)
Language:

Cosmos 1726 - Orbit

View from above orbital plane
View from above orbital plane
View from above satellite
View from above satellite

Ground track
Ground track

The orbit data is extracted from the following two-line orbital elements,

1 16495U 86006A   22025.88714455  .00003916  00000-0  14718-3 0  9991
2 16495  82.4725 179.1742 0012999  47.4451 312.7882 15.26783485972627
Epoch (UTC): 25 January 2022 21:17:29
Eccentricity: 0.0012999
inclination: 82.4725°
perigee height: 476 km
apogee height: 494 km
right ascension of ascending node: 179.1742°
argument of perigee: 47.4451°
revolutions per day: 15.26783485
mean anomaly at epoch: 312.7882°
orbit number at epoch: 97262

The dashed part of the orbit path shows where the satellite is in the earth's shadow,  

DLR